Home > Weather > Ely > Past weeks

Flag for United Kingdom Past Weather in Ely, England, United Kingdom — Yesterday and Last 2 Weeks

Now
79 °F

Scattered clouds.


Feels Like: 81 °F
Forecast: 57 / 74 °F
Wind: 6 mph from Northeast

Location: Mildenhall Royal Air Force Base

Current Time: Aug 25, 2016 at 12:39:32 PM

Latest Report: Aug 25, 2016 at 11:58 AM


Visibility: N/A

Pressure: 29.97 "Hg

Humidity: 64%

Dew Point: 66 °F

Location of ElyLocation

Past Weather in Ely — Graph

°F

Ely Temperature Yesterday

Maximum temperature yesterday: 87 °F (at 1:58 PM)
Minimum temperature yesterday: 63 °F (at 10:51 PM)
Average temperature yesterday: 71 °F

High & Low Weather Summary for the Past Weeks

 TemperatureHumidityPressure
High87 °F (Aug 24, 1:58 PM)100% (Aug 11, 2:03 AM)30.32 "Hg (Aug 11, 2:03 AM)
Low47 °F (Aug 16, 3:58 AM)35% (Aug 10, 4:58 PM)29.64 "Hg (Aug 20, 2:58 PM)
Average65 °F78%30.04 "Hg
* Reported Aug 10 10:58 AM — Aug 25 10:58 AM, Ely, Weather by CustomWeather, © 2016

Note: Actual official high and low records may vary slightly from our data, if they occured in-between our weather recording intervals... More about our weather records

Advertising

Ely Weather History for the Previous 24 Hours

Scroll right to see more
 ConditionsComfort  
Time TempWeatherWind HumidityBarometerVisibility
10:58 AM
Thu, Aug 25
76 °FPassing clouds.3 mph71%29.98 "HgN/A
9:58 AM71 °FScattered clouds.7 mph92%29.99 "HgN/A
8:58 AM66 °FPassing clouds.10 mph100%30.00 "HgN/A
7:58 AM64 °FPartly sunny.8 mph100%30.00 "HgN/A
7:03 AM63 °FLow clouds.9 mph100%30.01 "HgN/A
6:58 AM63 °FLow clouds.9 mph100%30.02 "HgN/A
6:02 AM63 °FFog.6 mph100%30.03 "Hg4 mi
5:48 AM63 °FLight rain. Fog.8 mph100%30.04 "HgN/A
5:03 AM63 °FMostly cloudy.8 mph100%30.04 "HgN/A
3:58 AM63 °FPassing clouds.6 mph100%30.04 "HgN/A
2:58 AM64 °FPassing clouds.3 mph100%30.02 "HgN/A
1:58 AM64 °FPassing clouds.5 mph100%29.99 "HgN/A
12:58 AM64 °FPassing clouds.8 mph100%30.04 "HgN/A
11:58 PM
Wed, Aug 24
63 °FPassing clouds.12 mph100%30.05 "HgN/A
11:02 PM63 °FLight rain. Passing clouds.2 mph100%30.11 "HgN/A
10:58 PM63 °FLight rain. Passing clouds.3 mph100%30.12 "HgN/A
10:51 PM63 °FLight rain. Passing clouds.3 mph100%30.10 "HgN/A
10:04 PM64 °FPassing clouds.5 mph100%30.11 "HgN/A
9:58 PM64 °FLight rain. Passing clouds.8 mph100%30.13 "HgN/A
8:58 PM66 °FPartly sunny.6 mph89%30.09 "HgN/A
7:58 PM70 °FSunny.10 mph77%30.05 "HgN/A
6:58 PM74 °FPassing clouds.9 mph70%30.06 "HgN/A
5:58 PM77 °FSunny.13 mph63%30.05 "HgN/A
4:58 PM79 °FSunny.10 mph60%30.05 "HgN/A
3:58 PM82 °FSunny.10 mph56%30.05 "HgN/A
2:58 PM85 °FSunny.13 mph54%30.05 "HgN/A
1:58 PM87 °FSunny.3 mph49%30.04 "HgN/A
12:58 PM85 °FSunny.2 mph52%30.04 "HgN/A
Weather by CustomWeather, © 2016

See weather overviewHow to use our weather pages